CST,Max TemperatureF,Mean TemperatureF,Min TemperatureF,Max Dew PointF,MeanDew PointF,Min DewpointF,Max Humidity, Mean Humidity, Min Humidity, Max Sea Level PressureIn, Mean Sea Level PressureIn, Min Sea Level PressureIn, Max VisibilityMiles, Mean VisibilityMiles, Min VisibilityMiles, Max Wind SpeedMPH, Mean Wind SpeedMPH, Max Gust SpeedMPH,PrecipitationIn, CloudCover, Events, WindDirDegrees
2011-11-1,77,60,43,54,44,40,93,60,26,30.24,30.19,30.15,10,9,2,15,4,18,0.00,0,,98
2011-11-2,83,69,55,60,57,53,90,68,45,30.18,30.13,30.08,10,10,9,20,9,25,0.00,1,,125
2011-11-3,66,56,46,63,50,36,97,66,34,30.20,30.13,30.05,10,8,2,22,11,31,0.17,4,Rain,334
2011-11-4,67,53,38,45,40,33,85,64,42,30.22,30.16,30.10,10,10,10,16,6,20,0.00,0,,345
2011-11-5,74,57,40,56,45,37,96,69,41,30.17,30.12,30.06,10,6,0,14,5,17,0.00,1,Fog,86
2011-11-6,82,70,58,61,58,54,87,68,48,30.18,30.13,30.07,10,10,9,13,9,31,0.00,3,,105
2011-11-7,83,73,63,64,62,60,93,70,47,30.19,30.13,30.06,10,10,7,21,9,25,0.00,3,,108
2011-11-8,82,74,65,70,66,62,93,78,62,30.06,30.02,29.97,10,9,2,21,10,25,0.24,5,Rain-Thunderstorm,145
2011-11-9,72,64,55,70,56,45,93,69,44,30.25,30.08,29.97,10,9,2,20,10,31,0.36,4,Rain-Thunderstorm,347
2011-11-10,65,52,38,42,33,24,85,54,22,30.35,30.29,30.23,10,10,10,28,13,33,T,1,Rain,357
2011-11-11,67,51,34,38,34,27,92,58,24,30.34,30.27,30.22,10,10,5,14,3,26,0.00,0,,193
2011-11-12,75,58,40,56,49,37,89,68,46,30.20,30.15,30.08,10,10,10,18,9,24,0.00,4,,139
2011-11-13,81,69,56,61,58,54,97,71,45,30.08,30.03,29.99,10,9,2,24,9,29,0.00,1,,159
2011-11-14,84,72,59,70,65,57,97,74,51,30.03,29.95,29.91,10,4,0,17,7,25,0.41,4,Fog-Rain,164
2011-11-15,83,73,62,72,68,61,93,79,65,29.91,29.84,29.79,10,5,0,20,8,28,1.56,6,Fog-Rain-Thunderstorm,187
2011-11-16,83,74,65,70,64,58,93,70,47,30.07,29.87,29.76,10,9,2,23,9,30,0.00,3,,231
2011-11-17,67,56,44,55,38,30,84,55,26,30.35,30.26,30.10,10,10,10,25,14,31,0.00,2,,11
2011-11-18,69,55,40,50,41,31,83,63,42,30.32,30.23,30.13,10,10,10,13,8,21,0.00,0,,99
2011-11-19,81,67,52,65,60,50,89,74,58,30.14,30.11,30.07,10,9,7,20,9,28,0.00,2,,132
2011-11-20,84,75,66,72,68,64,97,78,58,30.21,30.15,30.10,10,6,1,16,8,18,0.00,5,,153
2011-11-21,84,76,67,70,68,64,97,76,55,30.22,30.14,30.01,10,6,1,15,7,20,0.00,6,,140
2011-11-22,80,71,62,71,68,59,93,81,69,30.10,30.01,29.95,10,8,1,21,9,25,0.22,7,Rain,197
2011-11-23,70,62,54,57,52,50,93,73,53,30.27,30.19,30.11,10,9,4,21,11,25,0.00,4,,6
2011-11-24,71,60,48,49,47,44,93,66,38,30.33,30.28,30.23,10,10,6,14,6,17,0.00,0,,57
2011-11-25,79,63,46,62,52,43,89,67,45,30.24,30.14,30.03,10,7,0,16,7,22,0.00,2,Fog,122
2011-11-26,78,69,60,70,64,57,93,84,74,30.02,29.97,29.87,10,8,1,24,9,36,0.79,7,Rain,186
2011-11-27,61,54,46,57,45,36,89,75,61,30.15,30.07,29.99,10,10,6,21,13,28,0.05,8,Rain,317
2011-11-28,52,43,34,38,33,29,92,67,41,30.12,30.07,30.01,10,10,10,17,8,24,0.00,2,,295
2011-11-29,63,51,39,38,32,26,96,61,25,30.17,30.09,30.05,10,10,10,16,6,20,0.00,0,,302
2011-11-30,63,50,36,42,37,33,85,60,34,30.24,30.19,30.16,10,10,9,9,2,13,0.00,0,,32